Погода в Новленском

Россия / Вологодская область     59°37′09″N   39°20′09″E
темп.,
°C
ветер,
м/с
пор.,
м/с
влажн.,
%
обл.,
%
осадки,
мм/ч
давл.,
гПа
погр.,
м
18 мая, вт
вт1800:00+14вюв3118868 0.0 1015258
03:00+15вюв4138698 0.1 1014343
06:00+15вюв51288100 0.0 1013359
09:00+20юв597511 0.0 1013449
12:00+25юв585216 0.0 1013892
15:00+27юв510454 0.0 10122409
18:00+25юв4105488 0.0 1012768
21:00+20юв5157517 0.0 1012462
19 мая, ср
ср1900:00+17юв4149131 0.0 1012382
03:00+16вюв4139478 0.0 1012338
06:00+17юв513895 0.0 1012395
09:00+23юв613631 0.0 1011675
12:00+27юв613470 0.0 10111437
15:00+28юв613453 0.0 10102877
18:00+25юв612530 0.0 10101277
21:00+20юв5146812 0.1 1010612
20 мая, чт
чт2000:00+18юв5148090 0.1 1010525
03:00+16юв41489100 0.4 1010477
06:00+16вюв41288100 0.0 1009429
09:00+21юв46630 0.1 1009693
12:00+24юв6105579 0.0 10081200
15:00+24юв7136488 1.0 10061751
18:00+20ю6148346 3.8 10061181
21:00+16ююв410925 4.4 1006483
21 мая, пт
пт2100:00+14ююв412905 0.3 1006581
03:00+12ююв4119499 0.3 1007548
06:00+13ю3892100 0.0 1007665
09:00+14ююз4679100 0.2 1008816
12:00+14юз4683100 0.1 1009729
15:00+12зсз4792100 0.8 1010444
18:00+15зсз367870 0.4 1010899
21:00+11зюз22875 0.4 101234
22 мая, сб
сб2200:00+9зюз37935 0.0 1013118
03:00+7зюз37861 0.0 1015127
06:00+9зюз38794 0.0 1016300
09:00+14з35520 0.0 10171304
12:00+16зюз35425 0.0 10181876
15:00+18юз454258 0.0 10182089
18:00+16ююз34524 0.0 1018924
21:00+11ю346959 0.0 101852